Location: Treviso
(45.6669°N, 12.2430°E)
Time: 17:38:51
(UTC+02:00)

ISS - Pass Details

Date: 21 May 2018
Orbit: 402 x 407 km, 51.6° (Epoch: 27 May)

Event Time Altitude Azimuth Distance (km) Brightness Sun altitude
Rises 23:50:58 0° 266° (W) 2,316 0.2 -21.8°
Reaches altitude 10° 23:53:09 10° 275° (W) 1,457 -0.7 -21.9°
Maximum altitude 23:56:13 37° 345° (NNW) 651 -2.3 -22.0°
Drops below altitude 10° 23:59:17 10° 54° (NE) 1,460 -0.8 -22.2°
Sets 00:01:28 0° 63° (ENE) 2,320 0.1 -22.3°
